Location: White Ridge parking lot
(35.4984°N, 106.8413°W)
Time: 09:23:48
(UTC-07:00)

XW-2B - Pass Details

Date: 28 October 2019
Orbit: 508 x 528 km, 97.5° (Epoch: 20 November)

Event Time Altitude Azimuth Distance (km) Brightness Sun altitude
Rises 06:14:10 0° 30° (NNE) 2,615 ? -15.0°
Reaches altitude 10° 06:16:46 10° 50° (NE) 1,726 ? -14.5°
Maximum altitude 06:19:23 18° 95° (E) 1,286 ? -14.0°
Drops below altitude 10° 06:22:01 10° 140° (SE) 1,722 ? -13.4°
Sets 06:24:36 0° 160° (SSE) 2,606 ? -12.9°
